AirNav   ATP
 
 1537 users online  

KPCM Plant City Airport
Plant City, Florida, USA

GOING TO PLANT CITY?


FAA INFORMATION EFFECTIVE 04 JANUARY 2018

Location

FAA Identifier: PCM
Lat/Long: 28-00-00.6000N / 082-09-47.9000W
28-00.010000N / 082-09.798333W
28.0001667 / -82.1633056
(estimated)
Elevation: 152.7 ft. / 46.5 m (surveyed)
Variation: 05W (2010)
From city: 2 miles SW of PLANT CITY, FL
Time zone: UTC -5 (UTC -4 during Daylight Saving Time)
Zip code: 33567

Airport Operations

Airport use: Open to the public
Activation date: 03/1948
Control tower: no
ARTCC: MIAMI CENTER
FSS: SAINT PETERSBURG FLIGHT SERVICE STATION
NOTAMs facility: PCM (NOTAM-D service available)
Attendance: 0700-1900
Pattern altitude: 952.7 ft. MSL
Wind indicator: lighted
Segmented circle: yes
Lights: ACTVT MIRL RY 10/28, PAPI RYS 10 & 28 AND REILS RYS 10 & 28 - CTAF.
Beacon: white-green (lighted land airport)
Operates sunset to sunrise.

Airport Communications

CTAF/UNICOM: 123.05
WX AWOS-3: 120.025 (813-764-8259)
TAMPA APPROACH: 120.65 119.9
TAMPA DEPARTURE: 120.65 119.9
WX AWOS-3PT at LAL (8 nm E): 118.025 (863-834-2030)
WX AWOS-3 at VDF (10 nm W): 121.125 (813-630-0924)
WX ASOS at ZPH (14 nm N): 118.975 (813-780-0031)
WX AWOS-3 at TPF (16 nm W): 118.925 (813-251-6824)
WX ASOS at TPA (20 nm W): PHONE 813-873-7228

Nearby radio navigation aids

VOR radial/distance  VOR name  Freq  Var
LALr275/8.0LAKELAND VORTAC116.0001E
PIEr084/28.2ST PETERSBURG VORTAC116.4005W

Airport Services

Fuel available: 100LL JET-A
Parking: hangars and tiedowns
Airframe service: MAJOR
Powerplant service: MAJOR
Bottled oxygen: NONE
Bulk oxygen: NONE

Runway Information

Runway 10/28

Dimensions: 3950 x 75 ft. / 1204 x 23 m
Surface: asphalt, in good condition
Weight bearing capacity: 
PCN 7 /F/C/X/T
Single wheel: 21.0
Runway edge lights: medium intensity
Gradient: WEST.
RUNWAY 10  RUNWAY 28
Latitude: 28-00.033208N27-59.985390N
Longitude: 082-10.165047W082-09.432610W
Elevation: 151.5 ft.137.9 ft.
Gradient: 0.3% DOWN0.3% UP
Traffic pattern: leftleft
Runway heading: 099 magnetic, 094 true279 magnetic, 274 true
Displaced threshold: 200 ft.no
Markings: nonprecision, in good conditionnonprecision, in good condition
Visual slope indicator: 2-light PAPI on left (3.00 degrees glide path)2-light PAPI on left (3.00 degrees glide path)
Runway end identifier lights: yesyes
Touchdown point: yes, no lightsyes, no lights
Obstructions: 15 ft. road, 281 ft. from runway, 5:1 slope to clear
RWY 10 RY 10 APCH RATIO 32:1 TO DSPLCD THLD.
18 ft. tree, 542 ft. from runway, 20:1 slope to clear

Airport Ownership and Management from official FAA records

Ownership: Publicly-owned
Owner: HILLSBOROUGH COUNTY AVIATION AUTH.
P.O. BOX 22287
TAMPA, FL 33622
Phone (813) 870-8711
Manager: BRETT FAY
4007 AIRPORT RD
PLANT CITY, FL 33622
Phone (813) 870-8735

Airport Operational Statistics

Aircraft based on the field: 132
Single engine airplanes: 113
Multi engine airplanes: 14
Helicopters: 5
    
Aircraft operations: avg 131/day *
77% local general aviation
23% transient general aviation
<1% air taxi
<1% military
* for 12-month period ending 03 November 2015

Additional Remarks

3 TV TWRS 1099' & 2 AT 1549' MSL 12 NM SSW.
GCO 121.725 TAMPA CLNC DEL, FOR PCM.
NOISE ABATEMENT PROC IN EFFECT FOR RY 10 DEP. NO TURNS BLO 500 FT AGL UNLESS DIRECTED BY ATC.
(CONTACT TITLE) AIRPORT PHYSICAL ADDRESS: PLANT CITY AIRPORT SERVICES, 4007 AIRPORT RD, PLANT CITY, FL 33563

Instrument Procedures

NOTE: All procedures below are presented as PDF files. If you need a reader for these files, you should download the free Adobe Reader.

NOT FOR NAVIGATION. Please procure official charts for flight.
FAA instrument procedures published for use between 4 January 2018 at 0901Z and 1 February 2018 at 0900Z.

 
IAPs - Instrument Approach Procedures
RNAV (GPS) RWY 10   download (220KB)
RNAV (GPS) RWY 28   download (217KB)
VOR RWY 28   download (167KB)
NOTE: Special Alternate Minimums apply   download
NOTE: Special Take-Off Minimums/Departure Procedures apply   download (162KB)

Other nearby airports with instrument procedures:

KLAL - Lakeland Linder Regional Airport (8 nm E)
KVDF - Tampa Executive Airport (10 nm W)
KZPH - Zephyrhills Municipal Airport (14 nm N)
KTPF - Peter O Knight Airport (16 nm W)
KTPA - Tampa International Airport (20 nm W)
 
Loc | Ops | Rwys | IFR | FBO | Links
Com | Nav | Svcs | Stats | Notes


 
Area around KPCM (Plant City Airport)
 
Road maps at: MapQuest Bing Google
 
Aerial photo
WARNING: Photo may not be current or correct
Aerial photo of KPCM (Plant City Airport)
Photo courtesy of PhotosFromTheAir.com
Photo taken 27-Feb-2012
looking west.

Do you have a better or more recent aerial photo of Plant City Airport that you would like to share? If so, please send us your photo.

 
Sectional chart

 
Airport distance calculator
Flying to Plant City Airport? Find the distance to fly.

From to KPCM

Sunrise and sunset
Times for 18-Jan-2018
 Local
(UTC-5)
 Zulu
(UTC)
Morning civil twilight06:5711:57
Sunrise07:2212:22
Sunset17:5622:56
Evening civil twilight18:2223:22

Current date and time
Zulu (UTC)  18-Jan-2018 18:29:39
Local (UTC-5)  18-Jan-2018 13:29:39
 
METAR
KPCM 181815Z AUTO 36005KT 10SM CLR 10/M08 A3036 RMK AO2
KLAL 
8nm E 
181745Z 00000KT 10SM SKC 08/M07 A3037
KVDF 
10nm W 
181815Z AUTO 36006KT 10SM CLR 10/M06 A3036 RMK AO2
KZPH 
14nm N 
181815Z AUTO 05006KT 10SM CLR 09/M07 A3038 RMK AO2 T00891074
KTPF 
16nm W 
181815Z AUTO 01004KT 10SM CLR 08/M06 A3036 RMK AO2
KTPA 
20nm W 
181753Z 35006G14KT 10SM FEW250 09/M08 A3038 RMK AO2 SLP285 T00891078 10094 21017 58018
TAF
KLAL 
8nm E 
181723Z 1818/1918 03007KT P6SM SKC FM190100 VRB03KT P6SM SKC
KTPA 
20nm W 
181723Z 1818/1924 01007KT P6SM SKC FM190200 04004KT P6SM SKC FM191800 07006KT P6SM SKC
NOTAMs
Click for the latest NOTAMs
NOTAMs are issued by the DoD/FAA and will open in a separate window not controlled by AirNav.

 

 
 

FBO, Fuel Providers, and Aircraft Ground Support

  
 Business Name 
 
 Contact 
 
 Services / Description 
 
Fuel Prices
 
Comments
  
Plant City Airport Services 813-752-4710
[web site]
[email]
Aviation fuel, Aircraft parking (ramp or tiedown), Hangars, Passenger terminal and lounge, Flight training, Aircraft rental, Aerial tours / aerial sightseeing, ...
 
AirBoss™ fuel program  
 
More info about Plant City Airport Services
Shell
100LL Jet A
FS $4.75 $4.00 
GUARANTEED
AirBossMEMBERS
ONLY
Discounts
LoginJoin
 
   3 read write
FS=Full service
Update Fuel Prices
 

Would you like to see your business listed on this page?

 If your business provides an interesting product or service to pilots, flight crews, aircraft, or users of the Plant City Airport, you should consider listing it here.  To start the listing process, click on the button below
 
Add a business
 

Other Pages about Plant City Airport

www.pcairport.net
 
Update a link
 
Copyright © AirNav, LLC. All rights reserved. Privacy Policy  Contact